Caro, MI

2:44 PM EDT on July 17, 2019 (GMT -0400)
Caro

Weather History for KCFS - May, 2019

Change the Weather History Date:

Wednesday, May 22, 2019

  Actual Average (WUND) Record (WUND)
Temperature  
Mean Temperature 56 °F -  
Max Temperature 66 °F - - (-1)
Min Temperature 45 °F - - (-1)
Degree Days  
Heating Degree Days 10    
Growing Degree Days 6 (Base 50)    
Moisture  
Dew Point 46 °F    
Average Humidity 71    
Maximum Humidity 89    
Minimum Humidity 57    
Precipitation  
Precipitation 0.00 in - - ()
Sea Level Pressure  
Sea Level Pressure 30.04 in    
Wind  
Wind Speed 7 mph (SE)    
Max Wind Speed 22 mph    
Max Gust Speed 29 mph    
Visibility 10 miles    
Events Rain    
Averages and records for this station are not official NWS values.
T = Trace of Precipitation, MM = Missing Value Source: NWS Daily Summary

Daily Weather History Graph

Daily Weather History Graph

Search for Another Location

Airport or City:

Astronomy

May. 22, 2019 Rise Set
Actual Time 6:02 AM EDT 8:58 PM EDT
Civil Twilight 5:29 AM EDT 9:32 PM EDT
Nautical Twilight 4:46 AM EDT 10:15 PM EDT
Astronomical Twilight 3:55 AM EDT 11:06 PM EDT
Moon No Moon Rise 9:08 AM EDT (5/22)
Length of Visible Light 16h 03m
Length of Day
14h 55m
Waning Gibbous, 85% of the Moon is Illuminated
May 22
Waning Gibbous
May 26
Last Quarter
Jun 3
New
Jun 10
First Quarter
Jun 17
Full

Hourly Weather History & Observations

Time (EDT) Temp. Windchill Dew Point Humidity Pressure Visibility Wind Dir Wind Speed Gust Speed Precip Events Conditions
12:15 AM 46.4 °F - 36.5 °F 68% 30.16 in 10.0 mi Calm Calm - N/A   Clear
12:16 AM 46.2 °F - 36.5 °F 69% 30.16 in 10.0 mi Calm Calm - N/A   Clear
12:35 AM 45.9 °F 43.6 °F 36.9 °F 71% 30.15 in 10.0 mi East 4.6 mph - N/A   Clear
12:55 AM 46.4 °F 45.2 °F 37.0 °F 70% 30.15 in 10.0 mi East 3.5 mph - N/A   Clear
12:56 AM 46.2 °F 45.0 °F 37.0 °F 70% 30.15 in 10.0 mi East 3.5 mph - N/A   Clear
1:15 AM 45.9 °F 44.6 °F 37.2 °F 72% 30.15 in 10.0 mi East 3.5 mph - N/A   Clear
1:16 AM 45.9 °F - 37.2 °F 72% 30.15 in 10.0 mi Calm Calm - N/A   Clear
1:35 AM 46.6 °F - 37.4 °F 70% 30.13 in 10.0 mi East 5.8 mph - N/A   Clear
1:36 AM 46.6 °F - 37.4 °F 70% 30.13 in 10.0 mi East 5.8 mph - N/A   Clear
1:55 AM 46.0 °F - 37.4 °F 72% 30.14 in 10.0 mi Calm Calm - N/A   Clear
2:15 AM 46.6 °F - 38.1 °F 72% 30.12 in 10.0 mi East 5.8 mph - N/A   Clear
2:35 AM 47.5 °F - 38.5 °F 71% 30.12 in 10.0 mi East 4.6 mph - N/A   Clear
2:36 AM 47.5 °F - 38.5 °F 71% 30.12 in 10.0 mi East 4.6 mph - N/A   Clear
2:55 AM 47.7 °F - 38.7 °F 71% 30.11 in 10.0 mi East 5.8 mph - N/A   Clear
2:56 AM 47.7 °F - 38.7 °F 71% 30.11 in 10.0 mi East 6.9 mph - N/A   Clear
3:15 AM 48.2 °F - 38.7 °F 70% 30.10 in 10.0 mi East 8.1 mph - N/A   Clear
3:16 AM 48.2 °F - 38.7 °F 70% 30.10 in 10.0 mi East 8.1 mph - N/A   Clear
3:35 AM 49.1 °F - 38.7 °F 67% 30.09 in 10.0 mi East 6.9 mph - N/A   Clear
3:36 AM 49.1 °F - 38.7 °F 67% 30.09 in 10.0 mi East 6.9 mph - N/A   Clear
3:55 AM 49.1 °F - 39.2 °F 69% 30.11 in 10.0 mi ESE 8.1 mph - N/A   Clear
4:15 AM 49.1 °F - 40.1 °F 71% 30.11 in 10.0 mi East 6.9 mph - N/A   Clear
4:35 AM 49.1 °F - 40.5 °F 72% 30.11 in 10.0 mi ESE 5.8 mph - N/A   Clear
4:36 AM 49.1 °F - 40.6 °F 73% 30.10 in 10.0 mi ESE 5.8 mph - N/A   Clear
4:55 AM 49.6 °F - 41.4 °F 73% 30.10 in 10.0 mi East 6.9 mph - N/A   Clear
4:56 AM 49.6 °F - 41.4 °F 73% 30.10 in 10.0 mi East 6.9 mph - N/A   Clear
5:15 AM 49.6 °F - 41.4 °F 73% 30.10 in 10.0 mi East 6.9 mph - N/A   Clear
5:16 AM 49.6 °F - 41.4 °F 73% 30.10 in 10.0 mi East 6.9 mph - N/A   Clear
5:35 AM 50.5 °F - 40.8 °F 69% 30.10 in 10.0 mi SE 4.6 mph - N/A   Scattered Clouds
5:55 AM 51.4 °F - 40.1 °F 65% 30.10 in 10.0 mi ESE 10.4 mph - N/A   Mostly Cloudy
6:15 AM 52.9 °F - 38.8 °F 59% 30.08 in 10.0 mi East 9.2 mph 17.3 mph N/A   Overcast
6:16 AM 53.1 °F - 38.8 °F 59% 30.08 in 10.0 mi East 6.9 mph 17.3 mph N/A   Overcast
6:35 AM 53.4 °F - 38.5 °F 57% 30.10 in 10.0 mi ESE 8.1 mph - N/A   Overcast
6:36 AM 53.4 °F - 38.5 °F 57% 30.10 in 10.0 mi ESE 6.9 mph - N/A   Overcast
6:55 AM 50.7 °F - 41.7 °F 71% 30.09 in 10.0 mi East 5.8 mph - N/A Rain Light Rain
6:56 AM 50.5 °F - 41.7 °F 72% 30.09 in 10.0 mi East 5.8 mph - N/A Rain Light Rain
7:15 AM 50.0 °F - 42.4 °F 75% 30.09 in 10.0 mi East 6.9 mph - N/A   Light Drizzle
7:35 AM 50.0 °F - 42.8 °F 76% 30.10 in 10.0 mi East 8.1 mph - N/A Rain Rain
7:36 AM 50.0 °F - 43.0 °F 77% 30.09 in 10.0 mi East 8.1 mph - N/A Rain Rain
7:55 AM 50.0 °F - 43.2 °F 77% 30.09 in 10.0 mi East 10.4 mph - N/A   Overcast
7:56 AM 50.2 °F - 43.2 °F 77% 30.09 in 10.0 mi East 10.4 mph - N/A   Overcast
8:15 AM 50.9 °F - 43.2 °F 75% 30.08 in 10.0 mi East 11.5 mph 20.7 mph N/A   Mostly Cloudy
8:16 AM 51.1 °F - 43.2 °F 74% 30.08 in 10.0 mi East 11.5 mph 20.7 mph N/A   Mostly Cloudy
8:35 AM 51.3 °F - 42.4 °F 72% 30.06 in 10.0 mi East 10.4 mph 18.4 mph N/A   Mostly Cloudy
8:55 AM 52.9 °F - 42.1 °F 67% 30.08 in 10.0 mi ESE 15.0 mph 19.6 mph N/A   Scattered Clouds
9:15 AM 53.2 °F - 41.5 °F 65% 30.07 in 10.0 mi ESE 11.5 mph 20.7 mph N/A   Mostly Cloudy
9:16 AM 53.4 °F - 41.5 °F 64% 30.07 in 10.0 mi ESE 11.5 mph 20.7 mph N/A   Mostly Cloudy
9:35 AM 53.8 °F - 41.4 °F 63% 30.06 in 10.0 mi ESE 11.5 mph 17.3 mph N/A   Mostly Cloudy
9:36 AM 53.8 °F - 41.4 °F 63% 30.07 in 10.0 mi ESE 11.5 mph 17.3 mph N/A   Mostly Cloudy
9:55 AM 54.0 °F - 41.5 °F 63% 30.06 in 10.0 mi ESE 9.2 mph - N/A   Mostly Cloudy
9:56 AM 54.1 °F - 41.5 °F 62% 30.06 in 10.0 mi East 8.1 mph - N/A   Mostly Cloudy
10:15 AM 54.1 °F - 41.7 °F 63% 30.07 in 10.0 mi ESE 9.2 mph 17.3 mph N/A Rain Light Rain
10:35 AM 54.5 °F - 42.4 °F 64% 30.07 in 10.0 mi ESE 10.4 mph - N/A   Mostly Cloudy
10:36 AM 54.5 °F - 42.4 °F 64% 30.07 in 10.0 mi ESE 10.4 mph - N/A   Mostly Cloudy
10:55 AM 52.3 °F - 45.0 °F 76% 30.08 in 7.0 mi SE 8.1 mph - N/A Rain Rain
10:56 AM 52.3 °F - 45.0 °F 76% 30.08 in 7.0 mi SE 6.9 mph - N/A Rain Rain
11:15 AM 50.9 °F - 46.4 °F 85% 30.07 in 7.0 mi ESE 5.8 mph - N/A Rain Rain
11:35 AM 51.3 °F - 47.8 °F 88% 30.04 in 10.0 mi East 6.9 mph - N/A Rain Light Rain
11:36 AM 51.3 °F - 48.0 °F 89% 30.04 in 10.0 mi East 8.1 mph - N/A Rain Light Rain
11:55 AM 52.9 °F - 48.6 °F 85% 30.02 in 10.0 mi ESE 10.4 mph 17.3 mph N/A   Overcast
12:15 PM 54.9 °F - 49.3 °F 81% 30.00 in 10.0 mi ESE 11.5 mph 24.2 mph N/A   Overcast
12:16 PM 55.2 °F - 49.6 °F 81% 30.00 in 10.0 mi ESE 11.5 mph 19.6 mph N/A   Overcast
12:35 PM 58.1 °F - 49.1 °F 72% 29.99 in 10.0 mi ESE 17.3 mph 25.3 mph N/A   Scattered Clouds
12:36 PM 58.1 °F - 48.9 °F 71% 29.98 in 10.0 mi ESE 16.1 mph 25.3 mph N/A   Scattered Clouds
12:55 PM 59.7 °F - 48.2 °F 66% 29.98 in 10.0 mi ESE 21.9 mph 28.8 mph N/A   Clear
1:15 PM 59.0 °F - 46.4 °F 63% 29.98 in 10.0 mi SE 12.7 mph 20.7 mph N/A   Mostly Cloudy
1:35 PM 58.1 °F - 46.2 °F 65% 30.01 in 10.0 mi South 15.0 mph 21.9 mph N/A   Overcast
1:36 PM 58.1 °F - 46.2 °F 65% 30.01 in 10.0 mi SSE 13.8 mph 21.9 mph N/A   Overcast
1:55 PM 57.9 °F - 46.6 °F 66% 30.03 in 10.0 mi SSE 9.2 mph - N/A   Overcast
2:15 PM 57.6 °F - 46.9 °F 68% 30.03 in 10.0 mi SSE 9.2 mph - N/A   Overcast
2:16 PM 57.6 °F - 47.1 °F 68% 30.03 in 10.0 mi SSE 10.4 mph - N/A   Overcast
2:35 PM 59.7 °F - 48.6 °F 67% 30.02 in 10.0 mi SSE 12.7 mph 18.4 mph N/A   Overcast
2:55 PM 58.5 °F - 48.4 °F 69% 30.02 in 10.0 mi SSE 12.7 mph 16.1 mph N/A   Overcast
2:56 PM 58.5 °F - 48.4 °F 69% 30.02 in 10.0 mi SSE 11.5 mph 16.1 mph N/A   Overcast
3:15 PM 59.9 °F - 50.0 °F 70% 30.00 in 10.0 mi SSE 8.1 mph - N/A   Overcast
3:16 PM 59.9 °F - 50.0 °F 70% 30.00 in 10.0 mi South 8.1 mph - N/A   Overcast
3:35 PM 62.1 °F - 51.6 °F 69% 30.00 in 10.0 mi SE 11.5 mph - N/A   Overcast
3:55 PM 63.1 °F - 52.3 °F 68% 29.99 in 10.0 mi SSE 8.1 mph - N/A   Mostly Cloudy
4:15 PM 64.2 °F - 52.9 °F 67% 29.98 in 10.0 mi South 10.4 mph - N/A   Scattered Clouds
4:35 PM 64.6 °F - 52.9 °F 66% 29.97 in 10.0 mi SE 10.4 mph 16.1 mph N/A   Clear
4:36 PM 64.8 °F - 53.1 °F 66% 29.97 in 10.0 mi SE 9.2 mph 16.1 mph N/A   Clear
4:55 PM 65.7 °F - 54.0 °F 66% 29.97 in 10.0 mi South 10.4 mph - N/A   Clear
5:15 PM 65.7 °F - 53.6 °F 65% 29.97 in 10.0 mi South 10.4 mph 16.1 mph N/A   Clear
5:35 PM 66.0 °F - 54.0 °F 65% 29.97 in 10.0 mi SSE 9.2 mph - N/A   Clear
5:55 PM 66.4 °F - 54.1 °F 65% 29.97 in 10.0 mi South 12.7 mph 17.3 mph N/A   Clear
5:56 PM 66.4 °F - 54.1 °F 65% 29.97 in 10.0 mi SE 10.4 mph 17.3 mph N/A   Clear
6:15 PM 66.4 °F - 54.3 °F 65% 29.97 in 10.0 mi South 10.4 mph - N/A   Clear
6:16 PM 66.4 °F - 54.5 °F 66% 29.97 in 10.0 mi South 9.2 mph - N/A   Clear
6:35 PM 66.4 °F - 54.3 °F 65% 29.97 in 10.0 mi South 9.2 mph - N/A   Clear
6:55 PM 66.2 °F - 54.1 °F 65% 29.97 in 10.0 mi South 8.1 mph - N/A   Clear
7:15 PM 66.6 °F - 54.5 °F 65% 29.97 in 10.0 mi SSE 6.9 mph - N/A   Clear
7:35 PM 66.2 °F - 54.7 °F 66% 29.97 in 10.0 mi South 10.4 mph - N/A   Clear
7:36 PM 66.2 °F - 54.7 °F 66% 29.97 in 10.0 mi South 9.2 mph - N/A   Clear
7:55 PM 65.3 °F - 54.7 °F 68% 29.97 in 10.0 mi South 5.8 mph - N/A   Clear
7:56 PM 65.3 °F - 54.7 °F 68% 29.97 in 10.0 mi South 6.9 mph - N/A   Clear
8:15 PM 64.4 °F - 54.5 °F 70% 29.96 in 10.0 mi SSE 5.8 mph - N/A   Clear
8:35 PM 62.8 °F - 54.1 °F 73% 29.95 in 10.0 mi SE 6.9 mph - N/A   Clear
8:36 PM 62.8 °F - 54.1 °F 73% 29.95 in 10.0 mi SE 6.9 mph - N/A   Clear
8:55 PM 62.1 °F - 54.5 °F 76% 29.95 in 10.0 mi SE 8.1 mph - N/A   Clear
9:15 PM 61.0 °F - 54.0 °F 78% 29.95 in 10.0 mi SSE 4.6 mph - N/A   Clear
9:16 PM 60.8 °F - 54.0 °F 78% 29.95 in 10.0 mi SE 5.8 mph - N/A   Clear
9:35 PM 60.8 °F - 54.1 °F 79% 29.94 in 10.0 mi SSE 5.8 mph - N/A   Clear
9:55 PM 60.8 °F - 54.1 °F 79% 29.94 in 10.0 mi SSE 4.6 mph - N/A   Clear
10:15 PM 60.3 °F - 54.3 °F 81% 29.94 in 10.0 mi SSE 6.9 mph - N/A   Clear
10:16 PM 60.1 °F - 54.1 °F 81% 29.94 in 10.0 mi SSE 6.9 mph - N/A   Clear
10:35 PM 60.6 °F - 54.5 °F 80% 29.92 in 10.0 mi SE 5.8 mph - N/A   Clear
10:36 PM 60.4 °F - 54.5 °F 81% 29.92 in 10.0 mi SE 5.8 mph - N/A   Clear
10:55 PM 60.8 °F - 55.2 °F 82% 29.92 in 10.0 mi SSE 6.9 mph - N/A   Clear
10:56 PM 60.8 °F - 55.2 °F 82% 29.92 in 10.0 mi SSE 6.9 mph - N/A   Clear
11:15 PM 61.5 °F - 56.1 °F 82% 29.93 in 10.0 mi South 6.9 mph - N/A   Clear
11:35 PM 62.1 °F - 56.8 °F 83% 29.93 in 10.0 mi South 6.9 mph - N/A   Clear
11:36 PM 62.1 °F - 56.8 °F 83% 29.93 in 10.0 mi South 6.9 mph - N/A   Clear
11:55 PM 62.2 °F - 57.4 °F 84% 29.93 in 10.0 mi South 5.8 mph - N/A   Clear
11:56 PM 62.4 °F - 57.4 °F 84% 29.93 in 10.0 mi South 5.8 mph - N/A   Clear